Wind_Speed
16 17 16 13 11 9 10 11 11 11 10 9 10 11 11 11 12 12 12 13 13 13 14 14 13 13 13 13 14 14 14 14 14 15 15 16 16 16 16 16 16 16 16 17 16 16 16 16 16 15 15 17 17 17 16 15 15 15 17 18 18 18 18
17 18 18 16 14 11 10 10 10 9 8 8 9 10 11 10 10 11 12 13 14 14 13 13 12 12 12 12 12 11 11 12 13 14 15 16 16 16 16 16 16 17 17 17 17 17 17 17 17 16 17 18 17 16 16 15 15 16 17 17 17 16 16
17 18 18 17 15 12 11 9 9 8 8 8 9 10 11 10 9 10 11 12 13 14 13 13 12 12 11 11 11 10 11 12 13 14 15 15 16 16 17 16 16 17 17 18 18 18 18 18 17 17 17 18 17 17 17 16 15 17 18 17 16 16 16
17 16 15 14 13 12 10 9 9 8 8 8 9 10 10 10 9 9 9 11 12 13 14 13 13 12 12 12 12 12 12 13 13 13 14 14 15 16 16 15 15 16 17 17 18 19 18 18 17 16 17 18 18 18 18 16 16 17 17 16 16 16 16
14 12 11 11 11 10 9 9 8 7 7 7 8 9 10 10 10 10 9 10 11 13 13 12 12 12 12 12 12 12 12 13 13 13 14 14 14 15 15 15 15 16 17 18 18 18 18 17 16 16 17 18 18 18 18 16 17 18 18 17 16 16 16
12 11 10 9 9 8 9 9 7 7 8 8 9 9 9 10 11 11 11 11 11 11 10 10 9 9 9 9 10 10 10 11 12 13 14 14 14 15 15 15 15 16 16 17 17 17 16 16 16 17 19 19 18 18 17 17 17 18 18 17 17 16 16
9 9 9 8 8 9 10 9 8 9 10 10 10 11 11 11 12 12 13 13 13 12 11 10 10 9 8 8 9 9 9 10 11 12 13 14 14 15 15 16 16 16 16 16 16 16 15 16 16 18 18 18 17 17 17 17 18 18 18 18 17 16 16
6 8 9 9 10 11 12 10 9 10 11 11 11 12 12 12 13 12 13 14 14 14 14 13 13 13 12 11 11 11 11 11 12 12 13 14 15 15 15 16 16 16 16 16 16 15 15 16 16 17 18 17 17 17 18 18 18 18 18 17 17 16 16
9 9 10 11 11 12 13 11 10 10 10 11 11 11 10 11 12 13 14 13 13 14 15 15 15 15 14 14 14 14 13 13 13 14 14 14 15 15 15 16 16 17 16 16 16 16 16 16 16 17 18 18 18 18 18 18 18 18 17 17 17 16 16
11 10 11 11 12 13 12 11 11 11 10 10 10 9 9 9 11 13 14 13 12 12 13 14 15 15 15 15 15 15 15 15 15 15 15 15 15 15 15 16 17 17 16 16 16 16 17 17 17 18 19 19 19 19 19 19 18 18 16 16 16 16 17
13 12 12 13 13 13 13 13 13 12 11 10 9 8 8 8 10 12 12 12 11 11 12 12 13 13 14 14 14 14 15 16 16 16 16 16 16 15 15 15 16 16 16 16 16 16 17 18 19 19 19 20 20 19 19 19 19 18 17 16 16 16 17
16 15 15 15 15 15 16 16 16 14 12 12 11 10 9 9 10 11 11 10 10 11 10 10 9 10 10 11 11 12 14 15 16 17 17 17 16 16 16 16 16 15 15 16 16 17 18 19 20 20 20 20 19 19 18 19 19 19 18 18 17 17 17
19 19 18 18 17 17 18 19 18 16 15 14 14 13 12 11 11 11 11 11 11 11 10 9 9 9 9 9 10 11 12 13 14 15 16 16 16 16 16 17 17 16 16 16 17 18 18 19 19 19 19 19 19 18 18 19 19 19 19 19 19 18 19
21 21 21 19 18 18 20 21 20 19 18 17 16 14 13 13 13 13 12 12 12 11 11 11 10 10 9 9 10 10 11 12 13 14 14 15 15 16 16 16 16 16 16 16 17 18 18 18 18 18 18 18 18 18 19 19 19 19 19 19 19 19 20
22 22 21 20 19 21 21 21 21 20 19 17 16 15 15 14 14 14 13 13 12 12 11 11 10 10 10 10 10 10 10 11 11 12 13 13 14 14 14 15 15 14 15 16 16 17 17 17 17 17 18 18 18 18 19 19 19 19 18 19 19 20 20
22 23 22 21 22 23 22 21 20 20 18 18 17 16 15 15 14 14 13 13 13 13 12 11 10 10 10 10 10 10 10 10 10 11 11 12 12 12 13 13 13 13 14 14 15 15 16 16 17 17 18 18 18 18 18 19 18 18 18 19 20 20 19
24 24 22 22 24 24 22 20 20 19 18 18 18 16 15 15 14 14 13 13 13 13 12 11 10 10 10 10 10 10 10 10 11 11 11 12 12 13 13 12 12 12 13 13 14 14 15 16 17 18 18 18 18 18 18 18 18 17 17 18 18 19 18
25 24 22 23 25 24 21 19 19 19 19 18 17 16 16 15 15 14 13 13 13 13 12 11 11 11 11 10 10 10 10 10 11 11 12 12 12 12 12 12 12 12 12 12 12 13 14 15 15 16 16 16 16 17 17 17 17 17 17 17 18 18 19
25 24 24 25 26 24 21 20 20 20 19 19 17 17 16 16 16 15 15 14 14 14 13 12 12 11 11 11 10 10 11 11 11 12 12 12 12 13 13 13 13 12 12 12 12 12 12 13 13 14 14 14 14 15 16 16 17 17 17 17 18 19 19
24 24 25 27 27 26 24 22 21 21 20 19 18 17 17 17 17 17 16 15 15 15 14 14 13 13 12 12 12 12 13 13 13 14 14 14 14 15 15 15 14 14 14 14 15 15 15 14 14 15 15 14 14 15 15 17 17 18 18 19 19 20 21
26 25 27 28 27 26 26 25 24 23 21 20 19 18 18 18 19 19 18 17 17 16 16 15 15 14 14 15 15 15 16 16 17 17 17 17 17 17 16 16 15 15 15 16 16 17 17 17 17 17 18 18 18 18 18 19 19 20 20 21 22 23 24
24 25 28 30 28 26 26 27 26 25 24 23 21 20 20 21 21 21 21 20 18 18 18 17 17 16 16 17 17 18 19 19 19 19 18 18 18 17 17 16 16 16 16 16 17 18 18 18 18 19 20 21 22 22 21 21 21 21 21 22 23 24 25
20 23 27 31 29 27 27 28 28 27 26 24 22 22 22 22 22 23 22 22 20 19 19 19 19 19 19 19 20 20 21 21 21 21 20 20 20 19 18 18 17 17 17 18 18 19 19 19 19 20 21 22 23 24 24 24 23 23 23 24 25 25 26
20 23 26 29 29 28 28 28 28 28 27 24 22 22 23 23 24 24 23 23 23 22 21 21 21 21 21 22 22 22 23 23 23 22 22 23 22 22 21 20 20 20 20 20 20 20 21 21 22 23 23 23 23 24 24 24 24 24 25 25 26 27 28
20 23 25 26 26 26 26 27 27 26 25 24 23 23 24 25 25 25 25 25 25 24 24 23 23 24 24 24 24 24 24 24 24 24 24 25 25 25 24 23 23 23 23 23 23 23 24 24 25 26 26 26 24 24 24 24 24 24 26 27 29 29 30
22 22 23 24 25 24 24 26 26 25 25 24 24 25 28 28 28 28 27 27 27 26 26 26 27 27 27 27 26 26 26 26 26 26 26 26 27 28 27 27 26 26 25 25 25 25 26 27 28 29 30 30 28 27 27 27 27 28 30 32 33 34 35
25 24 24 26 27 25 24 24 25 25 25 25 26 29 32 32 30 29 29 29 29 30 30 30 29 29 29 29 29 28 28 29 29 30 30 30 31 31 31 31 30 29 27 26 26 27 28 29 30 31 32 33 33 32 31 30 31 33 35 37 37 37 39
28 27 28 30 30 29 28 27 27 28 27 27 28 31 34 33 32 31 31 32 32 33 32 32 32 32 32 31 31 31 32 32 33 33 34 35 35 35 35 35 34 33 31 29 28 28 30 30 32 34 34 33 34 35 34 35 36 38 39 39 38 37 39
30 30 30 32 33 34 34 33 33 32 30 30 31 33 34 34 34 34 34 34 35 35 35 34 34 34 34 34 35 35 36 36 36 37 38 39 40 40 39 39 39 38 37 35 32 32 32 32 33 34 35 35 36 37 38 39 40 40 40 40 40 40 42
29 29 29 31 33 34 34 35 35 35 33 33 33 35 35 35 36 36 36 37 37 37 38 38 38 38 38 39 39 40 40 40 40 41 42 43 44 45 45 45 44 43 43 42 40 38 38 37 35 36 37 38 40 40 41 42 41 41 42 43 44 45 46
29 29 29 30 33 34 35 36 36 36 35 35 36 37 37 37 37 38 38 39 39 40 41 41 42 42 43 44 44 44 45 44 44 45 45 46 47 48 49 49 49 48 47 46 43 42 42 41 40 41 42 42 42 43 43 44 44 44 46 47 47 49 49
32 31 31 32 33 35 36 38 38 37 37 37 38 39 39 39 39 39 40 41 42 43 44 45 46 47 48 48 49 49 50 50 50 49 48 48 49 50 51 52 52 52 51 49 48 47 47 46 46 47 47 47 47 46 45 46 47 47 48 49 50 51 52
35 35 36 37 39 39 40 41 42 41 39 39 39 40 40 41 42 43 43 44 45 46 47 48 49 49 50 52 53 53 54 55 55 54 53 52 52 52 53 53 53 53 53 53 53 53 53 53 52 52 53 53 52 50 48 49 50 50 51 52 52 53 53
40 42 43 44 45 46 47 48 48 46 44 43 43 43 44 45 47 47 48 48 48 49 50 51 51 52 53 54 54 55 55 56 57 58 58 57 56 55 54 54 54 54 54 54 55 56 56 56 56 57 58 58 56 54 53 53 53 52 52 52 52 52 52
42 42 44 45 46 49 51 53 52 50 49 49 48 49 50 51 52 53 53 53 53 53 53 53 54 54 54 55 55 56 56 56 57 58 58 57 57 56 55 54 54 54 55 55 56 57 58 59 60 60 60 60 59 58 56 55 53 53 53 53 53 52 52
45 46 47 47 47 47 50 52 52 52 52 52 53 54 55 55 56 56 56 55 54 54 54 53 54 54 54 55 55 55 56 56 56 57 57 56 56 55 56 56 56 57 58 59 60 61 62 63 63 62 62 61 60 60 58 56 54 54 55 55 55 55 54
52 53 52 50 48 47 47 48 49 50 51 53 54 55 55 55 55 54 54 53 53 54 54 55 55 56 57 57 57 57 57 58 59 59 59 59 59 59 60 61 62 63 64 64 65 65 65 64 63 63 63 62 62 60 58 56 55 55 55 55 55 55 55
Wind_Direction
212 211 209 218 233 235 237 242 243 243 243 243 244 243 245 248 249 248 244 241 243 245 247 246 243 241 242 243 242 242 243 244 244 243 242 242 242 242 243 243 242 243 245 247 248 248 247 248 250 251 248 247 248 252 256 260 262 263 262 261 264 269 274
219 220 224 237 247 243 238 241 241 238 236 237 239 238 238 240 243 245 242 237 236 239 243 245 245 243 240 241 242 243 246 247 246 244 244 245 247 248 249 249 249 249 251 251 252 252 250 248 248 250 251 252 255 257 258 259 259 261 261 261 265 269 272
230 233 238 244 246 240 236 236 236 236 235 235 238 238 236 232 232 236 238 236 233 233 237 240 241 241 240 240 241 244 247 248 248 249 250 252 253 254 256 256 256 256 256 255 254 253 251 248 248 250 253 257 260 261 260 259 259 260 261 262 264 267 269
237 240 241 241 239 237 235 234 234 237 238 238 241 242 241 236 231 230 235 236 233 230 232 235 237 239 240 241 243 245 248 251 254 255 257 257 257 258 258 258 258 258 257 255 253 252 251 251 253 255 257 258 259 260 260 260 259 259 260 261 262 263 266
238 241 243 241 237 234 234 236 239 243 246 246 247 248 245 240 234 230 231 233 232 230 230 233 235 237 240 242 244 246 249 253 257 258 259 259 258 258 259 259 256 255 255 254 254 255 255 255 256 255 254 254 255 257 259 260 260 259 260 261 261 262 263
248 249 247 241 232 227 234 242 245 249 255 255 255 254 249 244 238 231 228 229 230 228 227 229 232 235 239 243 246 250 253 256 259 260 260 260 259 260 261 261 258 256 256 257 258 259 258 255 252 251 251 253 255 257 258 257 257 257 258 258 258 260 262
253 246 236 229 224 227 235 240 241 247 255 258 260 259 252 246 243 237 232 233 235 237 237 239 242 246 249 251 256 260 263 263 262 262 263 263 262 261 260 259 258 257 256 257 259 259 257 253 251 251 252 254 256 257 257 256 254 255 256 256 257 259 261
255 244 232 228 228 233 240 243 244 246 252 259 263 263 255 246 244 244 241 239 240 244 248 252 254 256 258 259 261 261 262 262 263 264 266 266 265 264 261 260 260 259 258 258 258 257 254 250 249 251 254 256 258 259 258 256 254 253 254 257 259 261 261
259 249 235 233 233 237 244 247 243 241 248 256 260 261 258 245 240 244 247 247 245 247 251 254 256 258 258 258 257 257 257 259 260 263 265 266 266 264 262 260 258 257 256 255 254 252 250 248 248 251 254 257 257 257 255 253 252 251 251 253 255 257 259
249 239 227 227 231 236 239 237 232 230 235 245 250 254 254 242 235 239 246 250 251 250 250 252 254 255 256 256 256 257 259 260 261 261 260 260 259 256 255 254 253 252 251 250 249 249 250 250 250 251 252 252 252 252 251 250 250 250 249 249 250 253 255
238 227 222 225 227 229 230 228 225 223 225 233 241 246 245 236 230 232 238 244 248 250 251 250 250 251 252 253 254 257 260 262 262 262 260 258 256 253 252 251 252 252 251 251 250 251 252 252 253 252 251 250 249 249 249 250 251 252 251 250 250 250 253
234 228 229 230 229 229 230 230 229 227 228 233 240 242 238 231 227 227 231 238 244 248 250 249 248 248 248 249 251 254 258 260 261 261 260 259 257 254 252 250 250 249 249 251 251 251 252 253 254 255 254 252 251 250 250 252 253 254 255 255 255 255 257
239 237 237 236 234 234 236 236 238 239 241 244 247 243 236 232 231 232 233 237 241 244 245 245 247 249 249 249 251 253 256 258 259 259 259 259 258 256 254 252 249 246 245 245 245 245 247 249 253 255 256 256 257 257 257 257 258 260 261 264 265 264 263
244 244 244 243 241 240 241 242 243 245 246 247 245 240 236 235 236 237 237 238 239 242 244 245 247 250 250 249 250 253 257 259 260 260 260 259 258 257 256 254 253 252 250 248 247 247 248 249 251 254 258 261 263 265 266 266 266 266 267 268 270 269 268
246 245 246 248 248 245 244 244 245 245 243 240 238 235 235 237 239 241 242 242 243 245 247 248 249 251 250 249 249 252 256 260 262 262 262 261 260 258 256 254 254 255 255 255 255 255 256 256 257 257 259 261 263 265 267 269 271 271 271 271 271 269 267
246 245 246 249 251 248 247 247 245 241 236 232 232 232 233 236 240 244 246 247 248 249 250 251 251 250 249 250 251 252 254 258 260 261 260 261 260 259 257 256 254 254 254 256 257 258 259 259 259 258 257 257 260 262 264 266 268 271 272 273 272 271 269
247 248 248 250 252 251 250 249 244 237 232 230 232 233 234 236 238 241 244 245 247 248 248 248 248 249 250 251 251 252 252 252 253 254 255 256 257 257 257 256 255 255 255 256 258 259 260 261 261 261 261 261 261 262 262 262 263 265 267 269 271 272 272
247 249 252 253 253 253 252 248 241 235 232 233 235 237 239 239 239 239 239 240 243 244 244 244 246 249 251 252 253 254 253 251 250 251 251 251 251 251 251 252 254 255 257 260 262 264 264 266 266 267 267 268 269 269 268 266 266 266 266 266 268 269 270
248 250 253 256 257 257 255 249 241 236 236 238 240 242 245 246 246 244 241 240 242 244 244 245 245 248 251 255 257 257 256 255 254 253 252 252 253 253 255 259 263 267 271 275 278 279 279 277 275 273 271 270 270 272 274 273 272 271 270 270 270 269 269
252 252 251 253 255 256 256 251 243 239 240 242 244 247 251 253 253 252 250 249 250 250 250 250 249 250 254 258 260 260 260 261 260 259 260 261 262 264 267 270 274 278 282 285 287 288 288 286 283 280 277 277 278 280 281 281 279 277 276 276 274 272 271
253 252 251 252 252 253 254 250 244 240 241 243 246 250 254 256 257 257 256 257 257 256 256 256 256 257 259 263 265 266 267 268 268 268 268 269 270 271 273 275 277 281 285 288 291 292 291 289 286 284 284 286 288 289 290 288 287 285 284 283 282 281 280
253 254 253 255 254 251 250 248 244 241 241 243 246 250 252 254 256 257 257 258 258 258 260 261 261 263 264 267 270 271 272 273 273 272 273 274 275 275 276 279 283 288 292 296 298 298 297 295 291 288 287 288 288 289 289 287 285 284 284 284 284 284 284
256 258 258 259 256 250 248 248 246 243 242 243 245 248 250 252 254 256 257 256 255 256 258 260 262 264 266 269 271 273 274 274 275 275 275 275 275 274 277 281 287 292 295 297 298 299 300 300 298 295 292 290 288 287 285 283 282 281 282 283 284 285 286
257 258 258 259 257 251 248 246 245 245 245 244 246 250 253 255 255 255 255 254 254 255 256 258 261 263 266 268 269 271 273 274 275 276 275 275 275 275 278 282 287 291 292 294 296 298 299 300 300 299 298 296 293 290 288 285 283 282 283 284 285 286 287
253 252 253 253 251 249 248 245 243 245 246 245 249 253 255 254 252 252 252 253 255 256 258 260 261 262 264 265 266 268 270 272 274 275 276 275 274 276 279 281 283 287 289 292 296 298 299 300 300 299 299 297 295 294 292 288 284 284 286 287 287 287 287
249 246 243 242 242 242 243 242 242 244 246 246 251 255 254 252 249 249 251 254 257 259 261 262 262 262 262 263 264 267 269 270 271 272 274 274 274 276 278 279 280 283 285 289 293 296 297 297 297 298 297 297 296 294 290 285 282 284 288 290 290 289 288
251 244 236 236 239 237 234 233 235 240 245 248 251 253 253 252 251 252 255 259 262 263 263 262 261 260 261 261 262 265 267 269 270 270 270 271 272 274 275 276 277 278 281 284 288 292 294 295 295 295 294 295 294 292 289 286 282 283 287 289 290 290 290
254 248 239 237 240 239 236 236 237 242 250 253 253 252 252 253 254 256 260 263 264 264 263 262 261 261 261 261 262 264 266 267 268 269 269 269 269 270 272 275 275 275 277 279 282 286 288 291 293 293 290 289 288 288 288 288 284 284 286 287 287 289 289
253 252 248 245 245 245 244 245 246 250 257 260 257 254 253 254 254 256 259 262 263 264 264 263 263 263 262 263 264 265 266 267 268 269 269 269 269 270 271 274 275 274 273 273 276 279 281 284 287 287 285 284 285 287 288 288 286 285 284 285 287 288 288
255 256 255 252 250 249 249 250 251 254 258 257 254 254 254 254 254 256 258 260 261 263 264 264 264 263 263 264 264 265 266 267 268 269 270 270 271 272 273 275 275 274 272 270 271 273 275 278 280 281 281 282 284 285 285 285 285 283 280 280 283 284 284
255 256 256 254 254 255 257 256 256 257 258 255 252 253 254 254 255 257 259 261 262 263 264 264 264 265 265 265 265 266 267 267 268 269 269 271 272 273 275 276 275 275 274 272 272 273 274 275 278 279 280 281 282 282 281 281 281 279 278 278 278 278 280
253 254 253 253 254 257 260 261 260 261 261 258 255 254 254 254 255 257 260 262 263 263 264 265 264 265 265 266 266 266 267 268 269 269 268 268 268 270 271 272 272 272 271 269 269 272 274 275 278 279 280 281 282 282 281 279 279 278 277 276 275 276 279
256 257 256 254 254 256 257 259 260 262 263 262 260 257 256 255 257 261 263 264 263 264 264 265 265 264 265 265 265 266 267 269 270 271 270 269 268 269 270 271 270 270 269 266 264 265 268 270 273 276 278 280 282 282 280 279 279 278 276 275 275 276 278
260 261 261 260 260 260 260 259 259 261 263 264 263 262 261 261 263 265 266 265 263 262 262 263 265 265 265 265 265 265 266 268 269 269 270 270 269 269 270 270 270 269 270 269 267 265 266 268 270 273 275 278 280 280 278 278 278 277 276 275 275 276 277
258 260 262 264 265 264 263 261 260 261 262 263 263 264 264 264 265 267 267 266 265 264 263 263 265 266 266 266 266 266 266 266 266 266 266 267 267 267 267 268 269 269 270 270 269 269 269 270 272 273 275 277 278 277 276 276 276 275 275 275 275 275 275
258 261 266 270 270 268 265 263 262 262 263 264 265 266 266 265 266 267 268 269 269 269 269 269 269 269 269 269 269 269 269 268 268 268 268 267 267 268 269 270 271 272 272 272 272 271 272 272 273 274 275 275 275 275 275 275 273 273 273 273 273 274 274
262 266 270 272 272 270 268 266 264 264 264 264 265 266 266 266 267 267 268 268 269 270 270 271 271 271 272 271 271 271 271 270 270 271 271 271 271 272 272 273 273 273 273 273 273 273 273 273 274 274 273 273 274 275 275 274 273 272 272 271 271 271 272
Height
5774 5775 5776 5776 5777 5778 5778 5779 5780 5780 5781 5781 5781 5782 5782 5783 5784 5785 5785 5786 5787 5787 5787 5788 5789 5790 5790 5790 5791 5791 5792 5793 5793 5793 5794 5794 5794 5794 5794 5795 5795 5796 5796 5796 5796 5796 5796 5796 5796 5796 5796 5795 5794 5794 5795 5795 5796 5795 5795 5794 5794 5794 5794
5773 5774 5774 5775 5776 5776 5777 5777 5778 5778 5779 5780 5780 5780 5781 5782 5783 5784 5784 5785 5786 5786 5786 5787 5788 5789 5789 5789 5790 5790 5791 5791 5792 5792 5792 5792 5793 5793 5793 5794 5795 5795 5795 5795 5795 5796 5795 5795 5795 5795 5794 5793 5793 5793 5794 5794 5794 5794 5793 5792 5792 5792 5791
5772 5773 5773 5774 5774 5775 5775 5775 5776 5777 5778 5779 5779 5779 5780 5781 5782 5783 5784 5784 5785 5785 5785 5786 5787 5787 5788 5788 5789 5789 5789 5790 5790 5790 5791 5791 5791 5791 5792 5793 5794 5794 5794 5795 5795 5794 5794 5794 5794 5794 5793 5792 5791 5792 5792 5792 5793 5792 5790 5790 5791 5790 5789
5771 5771 5772 5772 5773 5773 5774 5774 5775 5776 5777 5778 5778 5779 5779 5780 5781 5782 5783 5783 5783 5784 5784 5784 5785 5786 5787 5787 5787 5788 5788 5788 5789 5789 5789 5789 5790 5790 5791 5792 5792 5792 5793 5793 5793 5793 5792 5793 5793 5792 5791 5790 5790 5790 5790 5791 5791 5790 5789 5789 5789 5788 5788
5769 5769 5770 5770 5771 5771 5772 5772 5773 5774 5775 5776 5777 5778 5778 5779 5780 5781 5781 5782 5782 5782 5783 5783 5784 5785 5785 5786 5786 5786 5787 5787 5787 5787 5787 5788 5788 5788 5789 5790 5790 5790 5790 5791 5791 5791 5791 5791 5791 5791 5790 5789 5789 5789 5789 5789 5789 5788 5787 5787 5787 5786 5786
5767 5767 5767 5768 5768 5769 5770 5771 5772 5773 5774 5774 5775 5776 5777 5778 5779 5779 5780 5781 5781 5781 5782 5782 5783 5784 5784 5785 5785 5785 5785 5785 5785 5786 5786 5786 5786 5787 5787 5788 5788 5788 5788 5788 5789 5789 5789 5790 5789 5789 5788 5788 5788 5788 5788 5788 5787 5787 5786 5786 5785 5785 5784
5765 5765 5766 5766 5767 5767 5768 5769 5770 5772 5772 5773 5773 5774 5775 5776 5777 5778 5778 5779 5780 5780 5781 5781 5782 5782 5783 5783 5783 5783 5784 5784 5784 5784 5784 5784 5785 5785 5785 5786 5786 5786 5786 5786 5787 5787 5788 5788 5788 5787 5786 5786 5787 5786 5786 5786 5786 5785 5785 5784 5783 5783 5783
5764 5764 5765 5765 5766 5766 5767 5768 5769 5770 5770 5771 5771 5772 5773 5774 5774 5775 5776 5777 5778 5779 5779 5780 5780 5781 5781 5782 5782 5782 5782 5782 5782 5782 5783 5783 5783 5784 5784 5784 5784 5784 5784 5784 5785 5785 5786 5786 5785 5785 5784 5785 5785 5785 5785 5785 5785 5784 5783 5782 5781 5781 5781
5764 5764 5764 5764 5765 5765 5765 5767 5768 5769 5769 5769 5769 5770 5771 5772 5772 5773 5773 5774 5776 5777 5778 5778 5779 5779 5780 5780 5780 5780 5780 5781 5781 5781 5782 5782 5782 5783 5783 5782 5782 5782 5782 5783 5783 5783 5784 5784 5783 5783 5783 5783 5783 5783 5784 5783 5783 5782 5782 5781 5780 5779 5779
5763 5763 5763 5763 5764 5764 5764 5765 5766 5767 5767 5768 5768 5769 5769 5770 5770 5771 5771 5772 5774 5775 5776 5777 5777 5777 5778 5778 5778 5778 5779 5779 5780 5780 5781 5781 5781 5782 5781 5781 5781 5781 5781 5781 5781 5782 5782 5782 5781 5781 5781 5782 5782 5782 5782 5781 5781 5780 5779 5779 5778 5778 5777
5761 5761 5762 5762 5762 5763 5764 5764 5765 5766 5766 5767 5767 5768 5768 5769 5769 5769 5770 5771 5772 5773 5774 5775 5776 5776 5776 5776 5776 5777 5777 5778 5778 5779 5779 5780 5780 5780 5780 5780 5780 5780 5780 5780 5780 5780 5780 5779 5779 5779 5780 5780 5780 5780 5779 5779 5778 5778 5777 5777 5776 5776 5775
5758 5759 5759 5760 5761 5761 5762 5763 5763 5764 5765 5766 5767 5767 5768 5768 5768 5768 5769 5770 5771 5772 5773 5774 5774 5774 5775 5775 5775 5775 5776 5776 5777 5777 5777 5778 5778 5778 5778 5778 5778 5778 5778 5778 5778 5778 5778 5777 5777 5777 5778 5778 5778 5778 5777 5777 5776 5775 5775 5775 5774 5774 5774
5756 5757 5757 5758 5759 5760 5760 5761 5761 5762 5763 5764 5765 5766 5766 5766 5767 5767 5768 5769 5770 5770 5771 5772 5772 5773 5773 5773 5774 5774 5774 5775 5775 5775 5776 5776 5776 5776 5776 5776 5776 5776 5777 5777 5776 5776 5776 5776 5776 5775 5776 5776 5776 5775 5775 5775 5774 5774 5773 5773 5772 5772 5771
5754 5755 5756 5757 5758 5758 5758 5759 5760 5760 5761 5762 5763 5763 5764 5765 5765 5766 5766 5767 5768 5769 5769 5770 5770 5771 5771 5771 5772 5772 5773 5773 5773 5773 5774 5774 5774 5774 5775 5775 5775 5775 5775 5775 5775 5775 5775 5775 5775 5775 5774 5774 5774 5773 5773 5773 5772 5772 5771 5771 5770 5769 5769
5753 5754 5755 5756 5757 5757 5757 5757 5758 5758 5759 5760 5761 5761 5762 5763 5763 5764 5765 5765 5766 5767 5767 5768 5768 5769 5769 5770 5770 5771 5771 5771 5771 5771 5772 5772 5772 5773 5773 5773 5773 5773 5773 5773 5773 5773 5773 5774 5774 5774 5773 5773 5772 5771 5771 5770 5770 5769 5769 5768 5768 5767 5767
5751 5752 5754 5755 5755 5755 5755 5756 5757 5757 5758 5759 5759 5759 5760 5761 5761 5762 5763 5764 5764 5765 5766 5766 5767 5767 5768 5768 5769 5769 5769 5769 5770 5770 5770 5770 5771 5771 5771 5771 5771 5771 5771 5771 5771 5771 5771 5771 5771 5771 5771 5771 5770 5770 5769 5768 5767 5767 5766 5766 5765 5765 5765
5749 5751 5753 5754 5753 5753 5754 5755 5755 5756 5757 5757 5758 5758 5758 5759 5759 5760 5761 5762 5762 5763 5764 5765 5765 5766 5766 5767 5767 5767 5768 5768 5768 5768 5768 5769 5769 5769 5769 5769 5769 5769 5769 5769 5769 5769 5769 5769 5769 5769 5768 5768 5768 5767 5767 5766 5765 5765 5765 5764 5763 5763 5763
5747 5749 5751 5751 5751 5752 5752 5753 5754 5755 5756 5756 5756 5757 5757 5758 5758 5759 5759 5760 5760 5761 5762 5763 5763 5764 5764 5765 5765 5766 5766 5766 5766 5766 5767 5767 5767 5767 5767 5767 5767 5767 5767 5767 5767 5767 5767 5767 5766 5766 5766 5765 5765 5765 5764 5764 5764 5763 5763 5762 5762 5761 5761
5746 5748 5749 5749 5749 5750 5750 5751 5752 5753 5754 5754 5755 5756 5756 5756 5757 5757 5758 5758 5758 5759 5759 5760 5761 5762 5762 5763 5763 5764 5764 5764 5765 5765 5765 5765 5765 5765 5765 5765 5764 5764 5764 5764 5764 5764 5764 5764 5763 5763 5763 5763 5763 5762 5762 5761 5761 5761 5761 5760 5760 5759 5759
5744 5745 5746 5746 5747 5748 5748 5749 5750 5751 5752 5752 5753 5754 5755 5755 5756 5756 5756 5756 5756 5757 5757 5758 5759 5759 5760 5760 5761 5761 5762 5762 5762 5763 5763 5763 5763 5762 5762 5762 5762 5762 5762 5762 5762 5762 5761 5761 5761 5760 5760 5760 5760 5760 5759 5759 5758 5758 5758 5757 5757 5757 5756
5741 5742 5743 5743 5744 5745 5746 5747 5747 5748 5749 5750 5751 5751 5752 5753 5753 5754 5754 5754 5754 5754 5755 5756 5756 5757 5757 5757 5758 5759 5759 5759 5760 5760 5760 5760 5760 5760 5760 5760 5760 5759 5759 5759 5759 5759 5758 5758 5758 5758 5757 5757 5756 5756 5756 5755 5755 5755 5754 5754 5754 5754 5753
5738 5740 5740 5740 5741 5742 5743 5744 5745 5746 5746 5747 5748 5749 5749 5750 5750 5751 5752 5752 5752 5752 5753 5753 5754 5754 5754 5755 5755 5756 5756 5756 5757 5757 5757 5757 5757 5757 5757 5757 5756 5756 5756 5755 5755 5755 5755 5755 5755 5754 5754 5753 5753 5752 5752 5752 5751 5751 5751 5751 5751 5750 5750
5736 5737 5738 5738 5738 5739 5740 5741 5742 5743 5743 5744 5745 5746 5746 5747 5748 5748 5749 5749 5750 5750 5750 5750 5751 5751 5752 5752 5752 5752 5753 5753 5753 5753 5753 5753 5753 5753 5753 5753 5753 5753 5753 5752 5752 5751 5751 5751 5751 5751 5751 5750 5749 5749 5748 5748 5748 5748 5748 5748 5747 5747 5747
5734 5734 5735 5735 5736 5736 5737 5738 5739 5740 5741 5742 5743 5743 5744 5745 5745 5746 5746 5746 5747 5747 5747 5748 5748 5748 5748 5749 5749 5749 5749 5749 5750 5750 5750 5749 5749 5750 5750 5750 5750 5749 5749 5749 5748 5748 5748 5748 5747 5747 5747 5747 5746 5745 5745 5744 5744 5744 5744 5744 5744 5744 5743
5731 5731 5732 5733 5733 5733 5734 5735 5736 5737 5738 5739 5739 5740 5741 5742 5742 5743 5743 5744 5744 5745 5745 5745 5745 5745 5745 5745 5746 5746 5746 5746 5746 5746 5746 5746 5746 5746 5746 5746 5746 5745 5745 5745 5744 5744 5744 5743 5743 5743 5743 5743 5743 5742 5742 5741 5740 5740 5740 5739 5739 5740 5739
5728 5728 5728 5729 5730 5730 5731 5732 5733 5735 5734 5735 5736 5737 5738 5739 5739 5740 5740 5741 5742 5742 5742 5743 5742 5742 5742 5742 5742 5742 5742 5742 5742 5742 5742 5742 5742 5742 5742 5742 5742 5741 5741 5740 5740 5740 5740 5740 5739 5739 5738 5738 5738 5738 5738 5737 5737 5736 5735 5735 5734 5734 5734
5724 5724 5725 5725 5726 5727 5728 5728 5730 5731 5731 5731 5733 5734 5735 5736 5736 5737 5738 5738 5738 5739 5739 5739 5739 5739 5739 5738 5739 5739 5739 5738 5738 5738 5738 5738 5738 5738 5738 5738 5738 5737 5737 5737 5736 5736 5736 5736 5735 5735 5734 5734 5734 5734 5734 5734 5733 5732 5731 5731 5730 5729 5728
5722 5722 5722 5722 5723 5724 5725 5726 5727 5727 5727 5729 5731 5732 5732 5733 5733 5734 5734 5734 5735 5735 5735 5735 5735 5735 5735 5734 5734 5734 5734 5734 5734 5734 5734 5734 5734 5734 5734 5734 5734 5734 5734 5733 5733 5732 5732 5732 5732 5731 5731 5730 5730 5730 5730 5730 5729 5728 5727 5726 5725 5725 5724
5720 5720 5720 5720 5720 5720 5722 5723 5724 5725 5726 5727 5728 5728 5728 5729 5730 5730 5730 5731 5731 5731 5731 5731 5731 5731 5731 5730 5730 5730 5729 5729 5729 5730 5730 5730 5730 5730 5730 5730 5730 5730 5730 5730 5729 5728 5727 5728 5728 5727 5726 5726 5725 5725 5725 5725 5724 5723 5722 5720 5720 5720 5719
5717 5717 5718 5718 5717 5717 5719 5720 5721 5722 5723 5723 5723 5723 5724 5724 5725 5726 5726 5727 5727 5727 5727 5726 5726 5726 5726 5726 5725 5725 5725 5725 5725 5725 5725 5724 5724 5725 5725 5725 5725 5725 5724 5724 5723 5722 5722 5723 5723 5723 5721 5721 5720 5720 5719 5719 5719 5718 5717 5716 5715 5714 5713
5713 5713 5714 5714 5714 5714 5714 5716 5717 5717 5718 5718 5718 5719 5719 5719 5720 5721 5721 5722 5722 5722 5722 5721 5721 5721 5720 5720 5720 5720 5719 5720 5720 5720 5720 5720 5719 5719 5719 5719 5719 5719 5719 5717 5716 5716 5716 5716 5716 5716 5716 5715 5714 5714 5714 5713 5713 5713 5712 5710 5709 5707 5707
5709 5709 5710 5710 5710 5710 5710 5710 5710 5711 5712 5713 5713 5714 5714 5714 5715 5716 5716 5716 5717 5717 5716 5715 5715 5715 5715 5714 5714 5714 5713 5713 5714 5714 5714 5714 5714 5714 5714 5714 5713 5714 5714 5713 5710 5708 5708 5709 5709 5708 5708 5708 5708 5708 5708 5707 5707 5707 5706 5705 5703 5701 5701
5704 5705 5706 5706 5706 5705 5705 5704 5705 5705 5706 5707 5707 5708 5708 5709 5709 5709 5710 5710 5711 5711 5710 5709 5709 5709 5709 5708 5708 5708 5708 5707 5707 5706 5706 5707 5708 5708 5707 5707 5707 5706 5707 5707 5705 5703 5702 5703 5703 5701 5700 5700 5701 5701 5701 5699 5699 5700 5699 5698 5697 5696 5696
5699 5699 5700 5700 5700 5700 5699 5699 5699 5699 5700 5700 5701 5701 5702 5702 5702 5702 5702 5703 5703 5703 5703 5703 5702 5702 5702 5701 5700 5701 5701 5700 5699 5698 5698 5699 5699 5700 5699 5699 5698 5698 5698 5698 5698 5697 5697 5697 5697 5696 5694 5694 5694 5693 5692 5691 5691 5692 5691 5691 5690 5690 5689
5692 5693 5693 5694 5694 5693 5692 5692 5692 5693 5693 5694 5694 5694 5695 5695 5695 5694 5694 5694 5695 5695 5695 5695 5695 5694 5694 5693 5692 5692 5692 5691 5690 5690 5690 5691 5691 5692 5691 5691 5691 5690 5690 5690 5690 5690 5689 5689 5689 5689 5687 5686 5686 5685 5684 5684 5684 5684 5684 5683 5683 5683 5682
5686 5686 5686 5686 5687 5687 5686 5686 5686 5686 5686 5687 5687 5687 5687 5687 5687 5687 5687 5686 5686 5686 5686 5686 5686 5685 5685 5684 5684 5683 5683 5683 5682 5681 5682 5683 5683 5683 5682 5682 5682 5682 5681 5681 5681 5681 5680 5680 5681 5681 5680 5678 5677 5676 5676 5675 5675 5675 5675 5675 5675 5675 5674
5680 5680 5679 5679 5679 5679 5679 5679 5679 5679 5680 5680 5680 5680 5680 5680 5680 5680 5679 5679 5679 5678 5678 5677 5677 5676 5675 5675 5675 5674 5674 5674 5673 5672 5673 5674 5674 5674 5673 5673 5673 5673 5672 5672 5671 5671 5671 5671 5671 5671 5670 5668 5667 5667 5668 5667 5666 5666 5667 5667 5667 5667 5666